Weather History for KELY - March, 2013

Change the Weather History Date:

Friday, March 1, 2013

  Actual Average Record
Temperature  
Mean Temperature 38 °F 33 °F  
Max Temperature 54 °F 46 °F 68 °F (1986)
Min Temperature 21 °F 20 °F -9 °F (1939)
Degree Days  
Heating Degree Days 27 32  
Month to date heating degree days 27 32  
Since 1 July heating degree days 5246 5369  
Cooling Degree Days 0 0  
Month to date cooling degree days 0 0  
Year to date cooling degree days 0 0  
Moisture  
Dew Point 25 °F    
Average Humidity 64    
Maximum Humidity 92    
Minimum Humidity 35    
Precipitation  
Precipitation 0.00 in 0.03 in 0.47 in (1976)
Month to date precipitation 0.00 0.03  
Year to date precipitation 1.45 1.48  
Snow  
Snow 0.00 in 0.30 in 6.70 in (1976)
Month to date snowfall 0.0 0.3  
Since 1 July snowfall 55.4 35.2  
Snow Depth T in    
Sea Level Pressure  
Sea Level Pressure 30.49 in    
Wind  
Wind Speed 7 mph (SSE)    
Max Wind Speed 14 mph    
Max Gust Speed 16 mph    
Visibility 10 miles    
Events      
T = Trace of Precipitation, MM = Missing Value Source: NWS Daily Summary

Daily Weather History Graph

Daily Weather History Graph

Search for Another Location

Airport or City:

Trip Planner

Search our weather history database for the weather conditions in past years. The results will help you decide how hot, cold, wet, or windy it might be!

Date:

Astronomy

Mar. 01, 2013 Rise Set
Actual Time 6:11 AM PST 5:32 PM PST
Civil Twilight 5:44 AM PST 5:59 PM PST
Nautical Twilight 5:13 AM PST 6:30 PM PST
Astronomical Twilight 4:42 AM PST 7:01 PM PST
Moon 10:08 PM PST (3/1) 8:02 AM PST (3/1)
Length of Visible Light 12h 14m
Length of Day
11h 20m
Waning Gibbous, 82% of the Moon is Illuminated
Mar 1
Waning Gibbous
Mar 4
Last Quarter
Mar 11
New
Mar 19
First Quarter
Mar 27
Full

Hourly Weather History & Observations

Time (PST) Temp. Windchill Dew Point Humidity Pressure Visibility Wind Dir Wind Speed Gust Speed Precip Events Conditions
12:53 AM 25.0 °F 15.5 °F 21.0 °F 85% 30.50 in 10.0 mi South 9.2 mph - N/A   Clear
1:53 AM 24.1 °F 16.0 °F 21.0 °F 88% 30.51 in 10.0 mi SSE 6.9 mph - N/A   Clear
2:53 AM 23.0 °F 12.4 °F 19.9 °F 88% 30.51 in 10.0 mi SSE 10.4 mph - N/A   Clear
3:53 AM 25.0 °F 14.2 °F 21.0 °F 85% 30.50 in 10.0 mi South 11.5 mph - N/A   Clear
4:53 AM 23.0 °F 12.4 °F 19.0 °F 85% 30.53 in 10.0 mi SSE 10.4 mph - N/A   Clear
5:53 AM 21.9 °F 11.7 °F 19.0 °F 89% 30.58 in 10.0 mi South 9.2 mph - N/A   Clear
6:53 AM 21.9 °F 11.7 °F 19.0 °F 89% 30.60 in 10.0 mi SSE 9.2 mph - N/A   Clear
7:53 AM 30.0 °F 21.7 °F 23.0 °F 75% 30.58 in 10.0 mi South 9.2 mph - N/A   Clear
8:53 AM 37.9 °F 32.7 °F 25.0 °F 60% 30.56 in 10.0 mi South 6.9 mph - N/A   Clear
9:53 AM 42.1 °F - 25.0 °F 51% 30.53 in 10.0 mi Calm Calm - N/A   Clear
10:53 AM 46.9 °F - 28.0 °F 48% 30.50 in 10.0 mi North 3.5 mph - N/A   Clear
11:53 AM 50.0 °F - 28.0 °F 43% 30.46 in 10.0 mi NNW 5.8 mph - N/A   Clear
12:53 PM 51.1 °F - 28.9 °F 43% 30.44 in 10.0 mi NNW 5.8 mph - N/A   Clear
1:53 PM 51.1 °F - 28.9 °F 43% 30.43 in 10.0 mi NNW 6.9 mph - N/A   Clear
2:53 PM 53.1 °F - 27.0 °F 37% 30.41 in 10.0 mi North 3.5 mph - N/A   Clear
3:53 PM 53.1 °F - 28.9 °F 40% 30.40 in 10.0 mi North 3.5 mph - N/A   Clear
4:53 PM 48.2 °F - 30.2 °F 50% 30.45 in 10.0 mi North 11.5 mph - N/A   Clear
5:53 PM 39.2 °F 35.0 °F 28.4 °F 65% 30.46 in 10.0 mi NW 5.8 mph - N/A   Clear
6:53 PM 35.6 °F 31.7 °F 28.4 °F 75% 30.47 in 10.0 mi NNE 4.6 mph - N/A   Clear
7:53 PM 30.9 °F - 27.0 °F 85% 30.51 in 10.0 mi Calm Calm - N/A   Clear
8:53 PM 30.9 °F 23.5 °F 27.0 °F 85% 30.48 in 10.0 mi South 8.1 mph - N/A   Clear
9:53 PM 30.0 °F 21.1 °F 26.1 °F 85% 30.48 in 10.0 mi SSE 10.4 mph - N/A   Clear
10:53 PM 28.9 °F 20.4 °F 25.0 °F 85% 30.47 in 10.0 mi South 9.2 mph - N/A   Clear
11:53 PM 27.0 °F 23.0 °F 25.0 °F 92% 30.45 in 10.0 mi South 3.5 mph - N/A   Clear